Location: Gilevgi
(36.8751°N, 30.0581°E)
Time: 20:39:45
(UTC+00:00)

COSMOS 2455 - Pass Details

Date: 11 December 2025
Orbit: 898 x 910 km, 67.1° (Epoch: 12 January)

Event Time Altitude Azimuth Distance (km) Brightness Sun altitude
Rises 17:21:16 0° 216° (SW) 3,514 6.5 -30.7°
Reaches altitude 10° 17:23:48 10° 220° (SW) 2,578 5.7 -31.2°
Enters shadow 17:29:38 59° 298° (WNW) 1,039 3.2 -32.4°
